OK1HRA-8 Weather Reports


time (UTC)temp
C
wind
direction
speed
KPH
gust
KPH
rain 1hr
cm
rain 24hr
cm
rain mn
cm
humidity
%
barometer
mb
20260903011706 13 247 4.8 8.0 0.00 0.00 0.00 8 1009.1
20260903011151 13 270 6.4 11.3 0.00 0.00 0.00 9 1010.1
20260903010630 13 270 8.0 9.7 0.00 0.00 0.00 9 1010.2
20260903010606 13 270 8.0 11.3 0.00 0.00 0.00 9 1010.1
20260903010051 13 270 8.0 12.9 0.00 0.00 0.00 9 1010.3
20260903005536 13 270 8.0 12.9 0.00 0.00 0.00 9 1010.3
20260903005015 13 247 6.4 8.0 0.00 0.00 0.00 9 1011.4
20260903004951 13 270 9.7 14.5 0.00 0.00 0.00 9 1011.4
20260903004436 13 247 6.4 11.3 0.00 0.00 0.00 9 1011.1
20260903003921 13 247 4.8 8.0 0.00 0.00 0.00 9 1011.0
20260903003400 13 247 6.4 6.4 0.00 0.00 0.00 9 1011.3
20260903003335 13 247 6.4 11.3 0.00 0.00 0.00 9 1010.9
20260903002821 13 247 4.8 11.3 0.00 0.00 0.00 9 1009.8
20260903002306 13 247 4.8 8.0 0.00 0.00 0.00 8 1010.6
20260903001745 13 247 3.2 4.8 0.00 0.00 0.00 9 1010.5
20260903001728 13 270 6.4 11.3 0.00 0.00 0.00 9 1010.4
20260903001213 14 247 6.4 9.7 0.00 0.00 0.00 8 1009.7
20260903000652 13 270 4.8 8.0 0.00 0.00 0.00 8 1009.4
20260903000137 13 270 6.4 11.3 0.00 0.00 0.00 8 1010.0
20260902235616 13 247 4.8 4.8 0.00 0.00 0.00 8 1010.1
20260902235600 13 247 4.8 8.0 0.00 0.00 0.00 8 1009.9
20260902235039 13 270 6.4 12.9 0.00 0.00 0.00 9 1010.8
20260902234524 13 247 6.4 11.3 0.00 0.00 0.00 9 1010.5
20260902234009 14 270 6.4 9.7 0.00 0.00 0.00 8 1010.2
20260902233448 14 270 6.4 8.0 0.00 0.00 0.00 8 1010.2
20260902233432 14 247 6.4 9.7 0.00 0.00 0.00 8 1010.2
20260902232911 13 247 4.8 8.0 0.00 0.00 0.00 8 1010.6
20260902232356 14 247 6.4 9.7 0.00 0.00 0.00 8 1010.8
20260902231841 14 247 6.4 9.7 0.00 0.00 0.00 8 1010.8
20260902231320 14 270 6.4 9.7 0.00 0.00 0.00 8 1010.5
20260902231304 14 270 6.4 9.7 0.00 0.00 0.00 8 1010.6
20260902230749 14 247 6.4 9.7 0.00 0.00 0.00 8 1010.3
20260902230226 14 270 4.8 8.0 0.00 0.00 0.00 8 1009.9
20260902225705 14 247 6.4 8.0 0.00 0.00 0.00 8 1009.6
20260902225648 14 270 6.4 9.7 0.00 0.00 0.00 8 1009.8
20260902225133 15 247 4.8 8.0 0.00 0.00 0.00 8 1009.3
20260902224612 15 270 6.4 9.7 0.00 0.00 0.00 8 1009.0
20260902224057 15 270 4.8 9.7 0.00 0.00 0.00 8 1008.9
20260902223536 15 270 6.4 6.4 0.00 0.00 0.00 8 1009.2
20260902223519 15 247 4.8 4.8 0.00 0.00 0.00 7 1009.4
20260902222958 15 270 3.2 4.8 0.00 0.00 0.00 8 1009.3
20260902222442 15 247 0.0 4.8 0.00 0.00 0.00 7 1009.5
20260902221921 15 247 0.0 4.8 0.00 0.00 0.00 7 1009.0
20260902221905 15 247 4.8 8.0 0.00 0.00 0.00 7 1009.1
20260902221344 15 247 0.0 0.0 0.00 0.00 0.00 7 1009.3
20260902220829 15 270 0.0 0.0 0.00 0.00 0.00 7 1008.4
20260902220314 15 225 0.0 0.0 0.00 0.00 0.00 7 1008.2
20260902215753 15 247 0.0 0.0 0.00 0.00 0.00 7 1008.8
20260902215737 15 247 0.0 0.0 0.00 0.00 0.00 7 1008.8
20260902215216 15 225 0.0 0.0 0.00 0.00 0.00 6 1008.4
20260902214700 16 225 0.0 0.0 0.00 0.00 0.00 6 1008.4
20260902214145 16 270 0.0 0.0 0.00 0.00 0.00 6 1007.1
20260902213624 16 270 0.0 0.0 0.00 0.00 0.00 6 1007.5
20260902213609 16 270 4.8 8.0 0.00 0.00 0.00 6 1007.3
20260902213054 16 270 4.8 9.7 0.00 0.00 0.00 6 1007.3
20260902212533 16 270 4.8 8.0 0.00 0.00 0.00 7 1007.6
20260902212018 16 247 4.8 8.0 0.00 0.00 0.00 7 1007.6
20260902211457 16 247 4.8 6.4 0.00 0.00 0.00 7 1006.5
20260902211439 16 247 4.8 9.7 0.00 0.00 0.00 7 1006.5
20260902210918 16 225 0.0 4.8 0.00 0.00 0.00 6 1008.4
20260902210403 16 247 6.4 11.3 0.00 0.00 0.00 7 1008.4
20260902205842 16 247 4.8 6.4 0.00 0.00 0.00 7 1008.3
20260902205825 16 247 6.4 12.9 0.00 0.00 0.00 7 1007.7
20260902205306 16 247 6.4 11.3 0.00 0.00 0.00 7 1007.9
20260902204749 16 270 6.4 9.7 0.00 0.00 0.00 7 1007.9
20260902204234 16 225 9.7 14.5 0.00 0.00 0.00 7 1008.1
20260902203713 16 247 9.7 11.3 0.00 0.00 0.00 6 1007.8
20260902203650 16 225 8.0 12.9 0.00 0.00 0.00 6 1007.8
20260902203135 17 225 6.4 11.3 0.00 0.00 0.00 6 1008.6
20260902202620 17 270 8.0 14.5 0.00 0.00 0.00 6 1007.0
20260902202057 17 270 6.4 6.4 0.00 0.00 0.00 6 1006.8
20260902202034 17 270 8.0 16.1 0.00 0.00 0.00 6 1006.9
20260902201518 17 247 8.0 16.1 0.00 0.00 0.00 6 1007.3
20260902201003 17 247 4.8 8.0 0.00 0.00 0.00 7 1007.6
20260902200442 16 270 4.8 4.8 0.00 0.00 0.00 6 1007.5
20260902200418 16 225 6.4 9.7 0.00 0.00 0.00 6 1007.5
20260902195903 17 247 8.0 14.5 0.00 0.00 0.00 6 1007.4
20260902195348 17 225 8.0 12.9 0.00 0.00 0.00 6 1007.5
20260902194827 17 247 4.8 6.4 0.00 0.00 0.00 7 1007.4
20260902194810 17 247 9.7 16.1 0.00 0.00 0.00 7 1007.5
20260902194249 17 225 12.9 20.9 0.00 0.00 0.00 6 1007.2
20260902193734 16 225 11.3 22.5 0.00 0.00 0.00 6 1008.8
20260902193219 18 270 11.3 24.1 0.00 0.00 0.00 5 1006.4
20260902192658 18 292 9.7 11.3 0.00 0.00 0.00 5 1006.7
20260902192642 18 270 9.7 16.1 0.00 0.00 0.00 5 1006.5
20260902192121 18 292 11.3 17.7 0.00 0.00 0.00 6 1006.0
20260902191606 18 270 11.3 17.7 0.00 0.00 0.00 5 1006.0
20260902191051 18 270 4.8 11.3 0.00 0.00 0.00 5 1006.5
20260902190530 18 270 0.0 0.0 0.00 0.00 0.00 6 1006.8
20260902190507 18 247 3.2 6.4 0.00 0.00 0.00 6 1006.4
20260902185951 18 270 3.2 6.4 0.00 0.00 0.00 5 1005.7
20260902185436 18 225 6.4 14.5 0.00 0.00 0.00 5 1007.2
20260902184914 18 270 6.4 8.0 0.00 0.00 0.00 5 1005.9
20260902184858 18 247 6.4 14.5 0.00 0.00 0.00 5 1005.8
20260902184343 19 270 8.0 14.5 0.00 0.00 0.00 5 1005.6
20260902183828 18 270 9.7 14.5 0.00 0.00 0.00 5 1005.8
20260902183307 18 270 8.0 12.9 0.00 0.00 0.00 5 1005.7
20260902182746 18 270 6.4 8.0 0.00 0.00 0.00 5 1005.5
20260902182730 18 270 6.4 12.9 0.00 0.00 0.00 5 1005.7
20260902182215 18 270 6.4 11.3 0.00 0.00 0.00 5 1005.8
20260902181654 19 270 6.4 14.5 0.00 0.00 0.00 5 1005.5
20260902181139 19 270 8.0 12.9 0.00 0.00 0.00 5 1005.4
20260902180618 19 270 0.0 0.0 0.00 0.00 0.00 5 1005.4
20260902180602 19 270 4.8 8.0 0.00 0.00 0.00 5 1005.3
20260902180041 19 270 4.8 9.7 0.00 0.00 0.00 5 1005.2
20260902175526 18 247 4.8 8.0 0.00 0.00 0.00 5 1004.8
20260902175011 18 270 6.4 9.7 0.00 0.00 0.00 5 1004.3
20260902174450 18 270 6.4 6.4 0.00 0.00 0.00 6 1005.2
20260902174426 18 270 6.4 11.3 0.00 0.00 0.00 6 1005.4
20260902173911 18 247 8.0 14.5 0.00 0.00 0.00 6 1005.5
20260902173356 18 270 8.0 16.1 0.00 0.00 0.00 6 1005.3
20260902172835 18 202 11.3 16.1 0.00 0.00 0.00 5 1006.6
20260902172818 18 202 17.7 24.1 0.00 0.00 0.00 6 1006.4
20260902172257 20 270 20.9 43.5 0.00 0.00 0.00 5 1004.1
20260902171742 20 270 6.4 16.1 0.00 0.00 0.00 4 1005.9
20260902171227 21 270 4.8 9.7 0.00 0.00 0.00 4 1004.7
20260902170706 21 292 0.0 0.0 0.00 0.00 0.00 4 1004.7
20260902170651 21 270 4.8 9.7 0.00 0.00 0.00 4 1004.5
20260902170136 21 270 4.8 9.7 0.00 0.00 0.00 4 1004.5
20260902165615 21 292 0.0 4.8 0.00 0.00 0.00 5 1004.5
20260902165100 21 292 4.8 8.0 0.00 0.00 0.00 4 1003.9
20260902164539 21 270 0.0 0.0 0.00 0.00 0.00 4 1004.2
20260902164523 21 270 0.0 0.0 0.00 0.00 0.00 4 1004.1
20260902163953 21 292 0.0 0.0 0.00 0.00 0.00 4 1004.7
20260902163438 21 270 4.8 8.0 0.00 0.00 0.00 4 1004.5
20260902162917 21 270 4.8 3.2 0.00 0.00 0.00 4 1004.6
20260902162859 21 270 6.4 11.3 0.00 0.00 0.00 4 1004.6
20260902162338 21 270 6.4 11.3 0.00 0.00 0.00 4 1004.7
20260902161823 21 270 6.4 12.9 0.00 0.00 0.00 4 1004.0
20260902161301 21 292 6.4 8.0 0.00 0.00 0.00 4 1004.0
20260902161245 21 270 6.4 9.7 0.00 0.00 0.00 4 1003.9
20260902160724 22 292 4.8 9.7 0.00 0.00 0.00 4 1004.1
20260902160208 22 247 4.8 8.0 0.00 0.00 0.00 4 1004.4
20260902155653 21 247 4.8 8.0 0.00 0.00 0.00 4 1004.7
20260902155132 21 247 0.0 0.0 0.00 0.00 0.00 4 1003.7
20260902155117 21 270 8.0 12.9 0.00 0.00 0.00 4 1003.8
20260902154602 21 270 11.3 20.9 0.00 0.00 0.00 4 1003.1
20260902154047 22 225 11.3 20.9 0.00 0.00 0.00 4 1003.5
20260902153526 22 270 8.0 16.1 0.00 0.00 0.00 4 1002.4
20260902153004 22 247 9.7 14.5 0.00 0.00 0.00 4 1002.6
20260902152949 22 247 14.5 29.0 0.00 0.00 0.00 4 1003.6
20260902152434 22 202 19.3 29.0 0.00 0.00 0.00 4 1003.8
20260902151913 23 225 12.9 29.0 0.00 0.00 0.00 3 1005.4
20260902151358 23 292 12.9 22.5 0.00 0.00 0.00 4 1004.3
20260902150837 22 247 6.4 8.0 0.00 0.00 0.00 4 1002.8
20260902150820 22 247 11.3 22.5 0.00 0.00 0.00 4 1003.0
20260902150259 22 270 9.7 19.3 0.00 0.00 0.00 4 1002.3
20260902145743 23 270 12.9 20.9 0.00 0.00 0.00 4 1003.8
20260902145222 22 270 17.7 24.1 0.00 0.00 0.00 4 1002.6
20260902145204 22 270 16.1 25.7 0.00 0.00 0.00 4 1002.8
20260902144643 23 225 11.3 22.5 0.00 0.00 0.00 3 1005.4
20260902144128 24 315 4.8 0.0 0.00 0.00 0.00 3 1004.6
20260902143607 23 225 0.0 0.0 0.00 0.00 0.00 3 1005.8
20260902143550 23 202 4.8 4.8 0.00 0.00 0.00 3 1005.6
20260902143029 22 270 6.4 9.7 0.00 0.00 0.00 4 1003.9
20260902142514 22 247 6.4 9.7 0.00 0.00 0.00 4 1003.7
20260902141959 21 247 6.4 14.5 0.00 0.00 0.00 4 1004.4
20260902141438 21 247 0.0 0.0 0.00 0.00 0.00 4 1003.7
20260902141422 21 270 8.0 11.3 0.00 0.00 0.00 4 1003.4
20260902140901 21 225 9.7 16.1 0.00 0.00 0.00 4 1004.2
20260902140346 22 270 6.4 11.3 0.00 0.00 0.00 4 1003.0
20260902135831 21 225 9.7 17.7 0.00 0.00 0.00 4 1004.7
20260902135310 23 157 6.4 8.0 0.00 0.00 0.00 3 1006.5
20260902135254 23 135 8.0 17.7 0.00 0.00 0.00 3 1006.4
20260902134733 23 225 8.0 17.7 0.00 0.00 0.00 4 1004.0
20260902134218 23 270 6.4 11.3 0.00 0.00 0.00 4 1005.7
20260902133703 22 270 8.0 16.1 0.00 0.00 0.00 4 1005.4
20260902133142 22 225 4.8 0.0 0.00 0.00 0.00 4 1004.9
20260902133126 22 247 9.7 19.3 0.00 0.00 0.00 4 1004.9
20260902132605 22 202 16.1 25.7 0.00 0.00 0.00 4 1005.9
20260902132050 22 247 19.3 32.2 0.00 0.00 0.00 4 1006.3
20260902131535 22 247 19.3 29.0 0.00 0.00 0.00 4 1005.6
20260902131014 23 247 22.5 29.0 0.00 0.00 0.00 4 1003.1
20260902130955 23 270 16.1 27.4 0.00 0.00 0.00 4 1003.4
20260902130440 22 270 17.7 29.0 0.00 0.00 0.00 4 1004.8
20260902125925 22 247 22.5 32.2 0.00 0.00 0.00 4 1003.1
20260902125400 22 225 16.1 20.9 0.00 0.00 0.00 4 1003.5
20260902125335 22 247 19.3 33.8 0.00 0.00 0.00 4 1003.4
20260902124820 23 202 14.5 24.1 0.00 0.00 0.00 4 1006.4
20260902124305 22 225 16.1 24.1 0.00 0.00 0.00 4 1006.1
20260902123744 22 247 9.7 12.9 0.00 0.00 0.00 4 1005.4
20260902123720 22 247 14.5 25.7 0.00 0.00 0.00 4 1006.1
20260902123205 22 247 14.5 24.1 0.00 0.00 0.00 4 1005.3
20260902122650 22 225 16.1 29.0 0.00 0.00 0.00 4 1006.7
20260902122129 22 180 20.9 27.4 0.00 0.00 0.00 4 1006.0
20260902122112 22 202 12.9 25.7 0.00 0.00 0.00 4 1006.2
20260902121557 21 225 17.7 27.4 0.00 0.00 0.00 4 1006.1
20260902121036 21 202 17.7 30.6 0.00 0.00 0.00 4 1005.3
20260902120521 22 225 14.5 24.1 0.00 0.00 0.00 4 1006.6
20260902120000 23 270 17.7 24.1 0.00 0.00 0.00 4 1005.0
20260902115944 22 247 19.3 29.0 0.00 0.00 0.00 4 1004.7
20260902115423 21 225 19.3 37.0 0.00 0.00 0.00 4 1005.6
20260902114908 22 270 11.3 24.1 0.00 0.00 0.00 5 1004.5
20260902114353 22 292 16.1 32.2 0.00 0.00 0.00 4 1005.6
20260902113832 21 225 12.9 17.7 0.00 0.00 0.00 4 1006.4
20260902113816 21 225 16.1 27.4 0.00 0.00 0.00 4 1005.8
20260902113255 21 0 12.9 24.1 0.00 0.00 0.00 5 1005.0
20260902112740 22 225 12.9 22.5 0.00 0.00 0.00 5 1006.6
20260902112225 22 247 14.5 25.7 0.00 0.00 0.00 4 1005.6
20260902111704 22 225 8.0 11.3 0.00 0.00 0.00 4 1007.5
20260902111641 22 180 8.0 16.1 0.00 0.00 0.00 4 1007.8
20260902111126 21 225 14.5 27.4 0.00 0.00 0.00 4 1007.3
20260902110611 21 270 17.7 33.8 0.00 0.00 0.00 5 1003.8
20260902110049 22 225 16.1 24.1 0.00 0.00 0.00 4 1007.3
20260902110029 23 225 11.3 30.6 0.00 0.00 0.00 4 1008.2
20260902105514 22 247 8.0 19.3 0.00 0.00 0.00 4 1007.4
20260902104955 22 247 12.9 24.1 0.00 0.00 0.00 5 1005.8
20260902104434 21 247 16.1 20.9 0.00 0.00 0.00 5 1004.6
20260902104410 21 247 17.7 29.0 0.00 0.00 0.00 5 1005.4
20260902103855 21 247 14.5 27.4 0.00 0.00 0.00 5 1004.6
20260902103340 21 247 16.1 24.1 0.00 0.00 0.00 5 1006.1
20260902102819 21 225 16.1 24.1 0.00 0.00 0.00 4 1005.5
20260902102800 21 225 19.3 33.8 0.00 0.00 0.00 4 1005.5
20260902102239 21 225 9.7 19.3 0.00 0.00 0.00 4 1007.5
20260902101724 20 225 17.7 29.0 0.00 0.00 0.00 5 1006.6
20260902101203 21 225 17.7 24.1 0.00 0.00 0.00 4 1007.4
20260902101147 21 202 12.9 32.2 0.00 0.00 0.00 5 1007.2
20260902100626 20 225 17.7 30.6 0.00 0.00 0.00 5 1006.8
20260902100110 21 270 12.9 27.4 0.00 0.00 0.00 5 1006.3
20260902095555 21 225 12.9 24.1 0.00 0.00 0.00 5 1007.7
20260902095035 21 270 17.7 22.5 0.00 0.00 0.00 4 1005.1
20260902095012 21 225 14.5 27.4 0.00 0.00 0.00 5 1006.1
20260902094457 21 247 12.9 24.1 0.00 0.00 0.00 5 1004.8
20260902093942 21 270 9.7 19.3 0.00 0.00 0.00 5 1007.7
20260902093419 21 225 4.8 0.0 0.00 0.00 0.00 5 1008.2
20260902093403 20 225 12.9 24.1 0.00 0.00 0.00 5 1008.0
20260902092842 20 225 9.7 17.7 0.00 0.00 0.00 5 1008.7
20260902092327 19 247 16.1 27.4 0.00 0.00 0.00 5 1006.7
20260902091812 20 247 14.5 24.1 0.00 0.00 0.00 5 1006.3
20260902091251 20 270 9.7 11.3 0.00 0.00 0.00 5 1007.9
20260902091227 20 270 11.3 20.9 0.00 0.00 0.00 5 1008.3
20260902090712 20 270 12.9 20.9 0.00 0.00 0.00 5 1007.4
20260902090157 20 247 14.5 22.5 0.00 0.00 0.00 6 1008.4
20260902085636 20 270 11.3 14.5 0.00 0.00 0.00 5 1007.3
20260902085619 20 270 9.7 17.7 0.00 0.00 0.00 5 1007.5
20260902085059 19 270 11.3 14.5 0.00 0.00 0.00 6 1008.9
20260902084543 19 270 11.3 19.3 0.00 0.00 0.00 6 1006.7
20260902084028 18 247 12.9 19.3 0.00 0.00 0.00 6 1007.6
20260902083507 18 247 14.5 17.7 0.00 0.00 0.00 6 1008.4
20260902083450 18 225 12.9 19.3 0.00 0.00 0.00 6 1008.2
20260902082929 18 202 8.0 14.5 0.00 0.00 0.00 5 1008.4
20260902082414 18 225 12.9 19.3 0.00 0.00 0.00 5 1007.7
20260902081853 18 225 12.9 16.1 0.00 0.00 0.00 5 1008.0
20260902081836 18 225 9.7 19.3 0.00 0.00 0.00 5 1008.6
20260902081315 18 202 8.0 17.7 0.00 0.00 0.00 6 1008.3
20260902080800 17 247 8.0 16.1 0.00 0.00 0.00 6 1008.8
20260902080245 17 247 9.7 16.1 0.00 0.00 0.00 6 1006.4
20260902075724 17 202 0.0 0.0 0.00 0.00 0.00 6 1008.9
20260902075708 17 180 9.7 20.9 0.00 0.00 0.00 6 1008.6
20260902075147 17 225 8.0 14.5 0.00 0.00 0.00 6 1009.4
20260902074632 17 202 8.0 14.5 0.00 0.00 0.00 6 1008.5
20260902074117 17 225 6.4 14.5 0.00 0.00 0.00 6 1009.2
20260902073556 16 225 0.0 0.0 0.00 0.00 0.00 6 1009.2
20260902073540 16 225 11.3 17.7 0.00 0.00 0.00 6 1009.1
20260902073019 16 270 8.0 17.7 0.00 0.00 0.00 7 1009.1
20260902072504 15 225 11.3 19.3 0.00 0.00 0.00 7 1008.9
20260902071949 16 225 9.7 16.1 0.00 0.00 0.00 6 1009.0
20260902071428 15 225 8.0 11.3 0.00 0.00 0.00 7 1008.9
20260902071412 15 225 9.7 20.9 0.00 0.00 0.00 7 1008.5
20260902070857 15 225 11.3 20.9 0.00 0.00 0.00 7 1006.9
20260902070336 15 225 8.0 14.5 0.00 0.00 0.00 7 1010.8
20260902065821 15 247 9.7 19.3 0.00 0.00 0.00 7 1009.3
20260902065300 15 225 6.4 8.0 0.00 0.00 0.00 7 1008.9
20260902065244 15 247 12.9 20.9 0.00 0.00 0.00 7 1008.3
20260902064723 15 225 12.9 20.9 0.00 0.00 0.00 7 1009.5
20260902064208 15 225 12.9 19.3 0.00 0.00 0.00 7 1008.9
20260902063653 14 247 12.9 20.9 0.00 0.00 0.00 7 1008.4
20260902063132 14 247 12.9 17.7 0.00 0.00 0.00 7 1008.8
20260902063116 14 270 12.9 19.3 0.00 0.00 0.00 8 1008.8
20260902062601 13 247 14.5 20.9 0.00 0.00 0.00 8 1009.8
20260902062040 13 247 14.5 22.5 0.00 0.00 0.00 8 1009.8
20260902061525 13 270 16.1 24.1 0.00 0.00 0.00 8 1011.0
20260902061004 13 225 11.3 16.1 0.00 0.00 0.00 8 1009.6
20260902060948 13 247 14.5 22.5 0.00 0.00 0.00 8 1009.4
20260902060427 13 247 14.5 22.5 0.00 0.00 0.00 8 1009.2
20260902055912 13 247 12.9 22.5 0.00 0.00 0.00 8 1009.2
20260902055357 13 247 14.5 20.9 0.00 0.00 0.00 8 1009.7
20260902054836 12 247 16.1 19.3 0.00 0.00 0.00 8 1010.4
20260902054813 12 247 16.1 24.1 0.00 0.00 0.00 8 1010.9
20260902054258 12 270 16.1 20.9 0.00 0.00 0.00 8 1010.4
20260902053743 12 247 12.9 20.9 0.00 0.00 0.00 8 1009.6
20260902053222 12 225 8.0 12.9 0.00 0.00 0.00 8 1009.4
20260902053205 12 270 11.3 19.3 0.00 0.00 0.00 8 1009.6
20260902052644 12 247 11.3 17.7 0.00 0.00 0.00 8 1010.0
20260902052129 12 270 12.9 17.7 0.00 0.00 0.00 8 1010.4
20260902051614 12 225 14.5 19.3 0.00 0.00 0.00 8 1010.2
20260902051053 12 247 8.0 9.7 0.00 0.00 0.00 8 1010.1
20260902051029 12 225 12.9 20.9 0.00 0.00 0.00 8 1010.0
20260902050514 12 247 16.1 20.9 0.00 0.00 0.00 8 1010.5
20260902045959 12 270 16.1 20.9 0.00 0.00 0.00 8 1010.5
20260902045438 12 247 12.9 17.7 0.00 0.00 0.00 8 1010.7
20260902045414 12 247 16.1 24.1 0.00 0.00 0.00 8 1010.6
20260902044859 12 270 16.1 22.5 0.00 0.00 0.00 8 1010.7
20260902044344 12 270 16.1 20.9 0.00 0.00 0.00 8 1010.6
20260902043823 12 247 12.9 16.1 0.00 0.00 0.00 8 1010.5
20260902043807 12 270 16.1 20.9 0.00 0.00 0.00 8 1010.5
20260902043252 12 270 14.5 24.1 0.00 0.00 0.00 8 1010.2
20260902042731 12 247 14.5 20.9 0.00 0.00 0.00 8 1010.8
20260902042215 12 270 16.1 20.9 0.00 0.00 0.00 8 1010.2
20260902041654 12 270 11.3 14.5 0.00 0.00 0.00 8 1010.2
20260902041639 12 247 14.5 20.9 0.00 0.00 0.00 8 1010.2
20260902041118 12 247 14.5 20.9 0.00 0.00 0.00 8 1010.1
20260902040602 12 270 14.5 22.5 0.00 0.00 0.00 8 1009.8
20260902040047 12 270 14.5 19.3 0.00 0.00 0.00 8 1009.9
20260902035526 12 247 9.7 14.5 0.00 0.00 0.00 8 1010.0
20260902035503 12 270 12.9 19.3 0.00 0.00 0.00 8 1009.7
20260902034948 12 247 12.9 19.3 0.00 0.00 0.00 8 1009.6
20260902034433 12 247 12.9 20.9 0.00 0.00 0.00 8 1009.7
20260902033912 12 270 11.3 14.5 0.00 0.00 0.00 8 1009.8
20260902033847 12 247 12.9 19.3 0.00 0.00 0.00 8 1009.6
20260902033332 12 225 12.9 17.7 0.00 0.00 0.00 8 1009.5
20260902032817 12 247 12.9 19.3 0.00 0.00 0.00 8 1009.7
20260902032256 12 247 11.3 14.5 0.00 0.00 0.00 8 1010.1
20260902032232 12 247 12.9 19.3 0.00 0.00 0.00 8 1010.2
20260902031717 12 247 12.9 19.3 0.00 0.00 0.00 8 1009.6
20260902031202 12 270 12.9 17.7 0.00 0.00 0.00 8 1009.9
20260902030641 12 247 11.3 16.1 0.00 0.00 0.00 8 1009.6
20260902030623 12 270 12.9 17.7 0.00 0.00 0.00 8 1009.5
20260902025547 12 247 9.7 16.1 0.00 0.00 0.00 8 1009.3
20260902025026 12 270 12.9 16.1 0.00 0.00 0.00 8 1009.6
20260902025009 12 247 9.7 16.1 0.00 0.00 0.00 8 1009.6
20260902024448 12 247 9.7 12.9 0.00 0.00 0.00 8 1009.5
20260902023933 12 247 9.7 14.5 0.00 0.00 0.00 8 1009.4
20260902023418 12 270 9.7 12.9 0.00 0.00 0.00 8 1009.9
20260902022857 12 247 8.0 9.7 0.00 0.00 0.00 8 1009.7
20260902022833 12 247 11.3 17.7 0.00 0.00 0.00 8 1010.0
20260902022318 12 247 12.9 17.7 0.00 0.00 0.00 8 1009.6
20260902021803 12 247 11.3 16.1 0.00 0.00 0.00 8 1009.8
20260902021242 12 247 6.4 8.0 0.00 0.00 0.00 8 1010.4
20260902021218 12 270 11.3 14.5 0.00 0.00 0.00 8 1010.1
20260902020703 12 270 11.3 16.1 0.00 0.00 0.00 8 1010.3
20260902020148 12 247 11.3 16.1 0.00 0.00 0.00 8 1009.7
20260902015627 12 247 6.4 8.0 0.00 0.00 0.00 8 1010.2
20260902015610 12 247 9.7 14.5 0.00 0.00 0.00 8 1010.1
20260902015049 12 247 11.3 14.5 0.00 0.00 0.00 8 1010.2
20260902014534 13 247 9.7 14.5 0.00 0.00 0.00 8 1010.0
20260902014019 12 247 11.3 14.5 0.00 0.00 0.00 8 1009.9
20260902013458 13 270 9.7 12.9 0.00 0.00 0.00 8 1010.0
20260902013442 13 247 11.3 16.1 0.00 0.00 0.00 8 1009.9
20260902012921 13 270 11.3 14.5 0.00 0.00 0.00 8 1010.0
20260902012406 13 247 9.7 16.1 0.00 0.00 0.00 8 1009.9